Weather History for Belmar-Farmingdale, NJ

Change the Weather History Date:

Friday, May 3, 2013

  Actual Average Record
Temperature  
Mean Temperature 50 °F -  
Max Temperature 55 °F 64 °F 87 °F (2001)
Min Temperature 46 °F 47 °F 37 °F (2005)
Degree Days  
Heating Degree Days 14    
Moisture  
Dew Point 42 °F    
Average Humidity 70    
Maximum Humidity 93    
Minimum Humidity 47    
Precipitation  
Precipitation 0.00 in - - ()
Sea Level Pressure  
Sea Level Pressure 30.41 in    
Wind  
Wind Speed 9 mph (East)    
Max Wind Speed 18 mph    
Max Gust Speed 25 mph    
Visibility 10 miles    
Events      
Averages and records for this station are not official NWS values.
T = Trace of Precipitation, MM = Missing Value Source: NWS Daily Summary

Daily Weather History Graph

Daily Weather History Graph

Search for Another Location

Airport:

Trip Planner

Search our weather history database for the weather conditions in past years. The results will help you decide how hot, cold, wet, or windy it might be!

Date:

Astronomy

May. 03, 2013 Rise Set
Actual Time 5:53 AM EDT 7:53 PM EDT
Civil Twilight 5:23 AM EDT 8:23 PM EDT
Nautical Twilight 4:47 AM EDT 8:59 PM EDT
Astronomical Twilight 4:08 AM EDT 9:39 PM EDT
Moon 2:16 AM EDT (5/3) 1:45 PM EDT (5/3)
Length of Visible Light 14h 59m
Length of Day
14h 00m
Last Quarter, 37% of the Moon is Illuminated
May 3
Last Quarter
May 9
New
May 18
First Quarter
May 25
Full
May 31
Last Quarter

Hourly Weather History & Observations

Time (EDT) Temp. Windchill Dew Point Humidity Pressure Visibility Wind Dir Wind Speed Gust Speed Precip Events Conditions
12:15 AM 50.0 °F - 44.6 °F 82% 30.37 in 10.0 mi Calm Calm - N/A   Clear
12:35 AM 50.0 °F - 44.6 °F 82% 30.37 in 10.0 mi East 3.5 mph - N/A   Clear
12:55 AM 48.2 °F - 44.6 °F 87% 30.38 in 10.0 mi East 4.6 mph - N/A   Clear
1:15 AM 48.2 °F - 42.8 °F 82% 30.38 in 10.0 mi East 6.9 mph - N/A   Clear
1:35 AM 48.2 °F - 44.6 °F 87% 30.38 in 10.0 mi East 8.1 mph - N/A   Clear
1:55 AM 50.0 °F - 46.4 °F 87% 30.39 in 10.0 mi East 8.1 mph - N/A   Clear
2:15 AM 51.8 °F - 46.4 °F 82% 30.39 in 10.0 mi East 10.4 mph 16.1 mph N/A   Mostly Cloudy
2:35 AM 51.8 °F - 44.6 °F 76% 30.39 in 10.0 mi East 8.1 mph - N/A   Mostly Cloudy
2:55 AM 51.8 °F - 46.4 °F 82% 30.40 in 10.0 mi East 12.7 mph 16.1 mph N/A   Clear
3:15 AM 51.8 °F - 46.4 °F 82% 30.40 in 10.0 mi ENE 8.1 mph - N/A   Mostly Cloudy
3:35 AM 50.0 °F - 46.4 °F 87% 30.41 in 10.0 mi ENE 6.9 mph - N/A   Mostly Cloudy
3:55 AM 50.0 °F - 44.6 °F 82% 30.41 in 10.0 mi ENE 8.1 mph - N/A   Mostly Cloudy
4:15 AM 50.0 °F - 44.6 °F 82% 30.41 in 10.0 mi ENE 8.1 mph - N/A   Scattered Clouds
4:35 AM 50.0 °F - 44.6 °F 82% 30.41 in 10.0 mi NE 9.2 mph - N/A   Overcast
4:55 AM 50.0 °F - 44.6 °F 82% 30.41 in 10.0 mi ENE 9.2 mph - N/A   Overcast
5:15 AM 50.0 °F - 42.8 °F 76% 30.41 in 10.0 mi ENE 9.2 mph - N/A   Overcast
5:35 AM 48.2 °F - 42.8 °F 82% 30.42 in 10.0 mi ENE 10.4 mph - N/A   Scattered Clouds
5:55 AM 50.0 °F - 39.2 °F 66% 30.42 in 10.0 mi East 12.7 mph 16.1 mph N/A   Clear
6:15 AM 50.0 °F - 39.2 °F 66% 30.43 in 10.0 mi ENE 11.5 mph 18.4 mph N/A   Clear
6:35 AM 50.0 °F - 41.0 °F 71% 30.43 in 10.0 mi ENE 15.0 mph 23.0 mph N/A   Clear
6:55 AM 50.0 °F - 39.2 °F 66% 30.44 in 10.0 mi East 12.7 mph 20.7 mph N/A   Clear
7:15 AM 51.8 °F - 39.2 °F 62% 30.44 in 10.0 mi ENE 10.4 mph - N/A   Partly Cloudy
7:35 AM 51.8 °F - 42.8 °F 71% 30.44 in 10.0 mi ENE 15.0 mph 21.9 mph N/A   Partly Cloudy
7:55 AM 51.8 °F - 41.0 °F 67% 30.45 in 10.0 mi ENE 15.0 mph 21.9 mph N/A   Clear
8:15 AM 51.8 °F - 41.0 °F 67% 30.45 in 10.0 mi ENE 18.4 mph 23.0 mph N/A   Clear
8:35 AM 51.8 °F - 41.0 °F 67% 30.45 in 10.0 mi East 12.7 mph 21.9 mph N/A   Partly Cloudy
8:55 AM 51.8 °F - 39.2 °F 62% 30.46 in 10.0 mi East 17.3 mph 21.9 mph N/A   Partly Cloudy
9:15 AM 51.8 °F - 39.2 °F 62% 30.46 in 10.0 mi East 15.0 mph 21.9 mph N/A   Scattered Clouds
9:35 AM 53.6 °F - 39.2 °F 58% 30.46 in 10.0 mi East 12.7 mph - N/A   Mostly Cloudy
9:55 AM 53.6 °F - 39.2 °F 58% 30.46 in 10.0 mi East 15.0 mph 20.7 mph N/A   Scattered Clouds
10:15 AM 53.6 °F - 39.2 °F 58% 30.46 in 10.0 mi East 15.0 mph 25.3 mph N/A   Mostly Cloudy
10:35 AM 53.6 °F - 37.4 °F 54% 30.46 in 10.0 mi ENE 13.8 mph 20.7 mph N/A   Partly Cloudy
10:55 AM 53.6 °F - 39.2 °F 58% 30.46 in 10.0 mi East 16.1 mph 21.9 mph N/A   Partly Cloudy
11:15 AM 53.6 °F - 37.4 °F 54% 30.46 in 10.0 mi East 16.1 mph - N/A   Partly Cloudy
11:35 AM 53.6 °F - 39.2 °F 58% 30.46 in 10.0 mi ENE 17.3 mph 21.9 mph N/A   Clear
11:55 AM 55.4 °F - 37.4 °F 51% 30.46 in 10.0 mi East 13.8 mph 20.7 mph N/A   Clear
12:15 PM 53.6 °F - 37.4 °F 54% 30.45 in 10.0 mi East 13.8 mph 20.7 mph N/A   Clear
12:35 PM 53.6 °F - 39.2 °F 58% 30.45 in 10.0 mi East 13.8 mph - N/A   Clear
12:55 PM 53.6 °F - 37.4 °F 54% 30.44 in 10.0 mi East 12.7 mph 19.6 mph N/A   Clear
1:15 PM 55.4 °F - 37.4 °F 51% 30.44 in 10.0 mi ENE 12.7 mph 18.4 mph N/A   Clear
1:35 PM 55.4 °F - 37.4 °F 51% 30.43 in 10.0 mi East 12.7 mph - N/A   Clear
1:55 PM 55.4 °F - 37.4 °F 51% 30.43 in 10.0 mi East 10.4 mph 17.3 mph N/A   Clear
2:15 PM 55.4 °F - 37.4 °F 51% 30.43 in 10.0 mi ESE 12.7 mph 18.4 mph N/A   Clear
2:35 PM 55.4 °F - 37.4 °F 51% 30.43 in 10.0 mi ESE 12.7 mph 19.6 mph N/A   Clear
2:55 PM 55.4 °F - 37.4 °F 51% 30.42 in 10.0 mi East 12.7 mph 16.1 mph N/A   Clear
3:15 PM 55.4 °F - 35.6 °F 47% 30.42 in 10.0 mi East 11.5 mph - N/A   Clear
3:35 PM 55.4 °F - 37.4 °F 51% 30.41 in 10.0 mi ESE 11.5 mph - N/A   Clear
3:55 PM 55.4 °F - 39.2 °F 54% 30.40 in 10.0 mi ESE 10.4 mph - N/A   Clear
4:15 PM 53.6 °F - 39.2 °F 58% 30.40 in 10.0 mi ESE 13.8 mph 17.3 mph N/A   Clear
4:35 PM 53.6 °F - 41.0 °F 62% 30.40 in 10.0 mi ESE 11.5 mph 18.4 mph N/A   Clear
4:55 PM 53.6 °F - 41.0 °F 62% 30.39 in 10.0 mi ESE 12.7 mph 16.1 mph N/A   Clear
5:15 PM 53.6 °F - 41.0 °F 62% 30.39 in 10.0 mi East 12.7 mph 17.3 mph N/A   Clear
5:35 PM 53.6 °F - 42.8 °F 67% 30.39 in 10.0 mi SE 8.1 mph - N/A   Clear
5:55 PM 51.8 °F - 42.8 °F 71% 30.39 in 10.0 mi ESE 11.5 mph - N/A   Clear
6:15 PM 51.8 °F - 42.8 °F 71% 30.39 in 10.0 mi East 8.1 mph - N/A   Clear
6:35 PM 51.8 °F - 42.8 °F 71% 30.39 in 10.0 mi East 9.2 mph - N/A   Clear
6:55 PM 51.8 °F - 42.8 °F 71% 30.39 in 10.0 mi East 6.9 mph - N/A   Clear
7:15 PM 51.8 °F - 42.8 °F 71% 30.39 in 10.0 mi ESE 9.2 mph - N/A   Clear
7:35 PM 50.0 °F - 42.8 °F 76% 30.39 in 10.0 mi SE 5.8 mph - N/A   Clear
7:55 PM 48.2 °F - 42.8 °F 82% 30.39 in 10.0 mi SE 6.9 mph - N/A   Clear
8:15 PM 48.2 °F - 42.8 °F 82% 30.39 in 10.0 mi East 6.9 mph - N/A   Clear
8:35 PM 48.2 °F - 42.8 °F 82% 30.39 in 10.0 mi ESE 4.6 mph - N/A   Clear
8:55 PM 48.2 °F - 42.8 °F 82% 30.40 in 10.0 mi SE 3.5 mph - N/A   Clear
9:15 PM 48.2 °F - 44.6 °F 87% 30.40 in 10.0 mi Calm Calm - N/A   Clear
9:35 PM 48.2 °F - 42.8 °F 82% 30.40 in 10.0 mi Calm Calm - N/A   Clear
9:55 PM 48.2 °F - 42.8 °F 82% 30.40 in 10.0 mi ESE 3.5 mph - N/A   Clear
10:15 PM 46.4 °F - 42.8 °F 87% 30.39 in 10.0 mi Calm Calm - N/A   Scattered Clouds
10:35 PM 46.4 °F - 44.6 °F 93% 30.39 in 10.0 mi Calm Calm - N/A   Scattered Clouds
10:55 PM 46.4 °F 45.2 °F 44.6 °F 93% 30.39 in 10.0 mi East 3.5 mph - N/A   Mostly Cloudy
11:15 PM 48.2 °F - 44.6 °F 87% 30.38 in 10.0 mi Calm Calm - N/A   Overcast
11:35 PM 48.2 °F - 44.6 °F 87% 30.38 in 10.0 mi Calm Calm - N/A   Mostly Cloudy
11:55 PM 48.2 °F - 44.6 °F 87% 30.37 in 10.0 mi NE 3.5 mph - N/A   Mostly Cloudy